Torna al catalogo

COSMOS 1823 DEB

AttivoLEO
NORAD 18754·DEBRIS·🇷🇺 Russia

Lanciato Feb 20, 1987 da Plesetsk Cosmodrome

Loading…

Prossimi Passaggi (prossime 24 ore)

TLE

AggiornatoSource: Space-Track

Epoca: Sep 14, 2026, 09:39 UTC

1 18754U 87020AF  26257.40208516  .00000080  00000-0  52399-3 0  9999
2 18754  73.6297 257.1093 0071709 115.2679 314.8793 12.64656275786171

Traccia COSMOS 1823 DEB in tempo reale con AllMySat

Download on the App Store